[keps] orb10014.2l.amsat

Ray Hoad r.hoad at att.net
Thu Jan 14 18:52:55 PST 2010


SB KEPS @ AMSAT  $ORB10014.N
2Line Orbital Elements 10014.AMSAT

HR AMSAT ORBITAL ELEMENTS FOR AMATEUR SATELLITES IN NASA FORMAT
FROM WA5QGD FORT WORTH,TX January 14, 2010
Send Subscribe/unsubscribe to KEPS at 
http://www.amsat.org/mailman/listinfo/keps
BID: ORB10014.N

DECODE 2-LINE ELSETS WITH THE FOLLOWING KEY:
1 AAAAAU 00  0  0 BBBBB.BBBBBBBB  .CCCCCCCC  00000-0  00000-0 0  DDDZ
2 AAAAA EEE.EEEE FFF.FFFF GGGGGGG HHH.HHHH III.IIII JJ.JJJJJJJJKKKKKZ
KEY: A-CATALOGNUM B-EPOCHTIME C-DECAY D-ELSETNUM E-INCLINATION F-RAAN
G-ECCENTRICITY H-ARGPERIGEE I-MNANOM J-MNMOTION K-ORBITNUM Z-CHECKSUM

TO ALL RADIO AMATEURS BT

AO-07
1 07530U 74089B   10013.85731582 -.00000027  00000-0  10000-3 0  6785
2 07530 101.4118 035.6616 0011917 216.2226 143.8039 12.53577424609115
FO-29
1 24278U 96046B   10014.72820539 -.00000074  00000-0 -41288-4 0  2207
2 24278 098.5231 224.9973 0350698 161.8244 199.5807 13.52946117662356
SO-33
1 25509U 98061B   10013.93240210  .00000221  00000-0  33467-4 0 06305
2 25509 031.4355 300.8009 0354410 021.1091 340.3768 14.28278451585983
RS-22
1 27939U 03042A   10014.69020870  .00000103  00000-0  28759-4 0  9873
2 27939 097.9150 246.4782 0013453 180.7649 179.3536 14.63373159336500
VO-52
1 28650U 05017B   10014.70332337 -.00000141  00000-0 -11300-4 0  4114
2 28650 097.7153 073.9619 0028168 059.6060 300.7928 14.81666284253961
SO-67
1 35870U 09049F   10014.75156313  .00000544  00000-0  26125-4 0  3539
2 35870 097.3562 067.4895 0010314 232.2713 267.0054 15.22918367 18114
HO-68
1 36122U 09072B   10014.71167106 -.00000045  00000-0  00000 0 0   919
2 36122 100.4937 076.5638 0007567 328.4904 031.5744 13.16279815  4023
UO-11
1 14781U 84021B   10013.71714850  .00000299  00000-0  46922-4 0  1500
2 14781 098.0794 064.8122 0009385 024.1423 336.0231 14.79761075388963
AO-16
1 20439U 90005D   10013.54502199  .00000013  00000-0  20548-4 0 07986
2 20439 098.3109 337.7170 0010012 266.0824 093.9212 14.31844934043251
LO-19
1 20442U 90005G   10013.84718361 -.00000003  00000-0  14056-4 0  7070
2 20442 098.2717 344.4348 0010977 259.5215 100.4728 14.32078299 43465
AO-27
1 22825U 93061C   10014.77267137 -.00000120  00000-0 -30414-4 0  4338
2 22825 098.4677 326.8467 0008370 007.9019 352.2295 14.29282890850132
IO-26
1 22826U 93061D   10013.81558029  .00000003  00000-0  17744-4 0 01680
2 22826 098.4591 326.5775 0009072 005.1576 354.9709 14.29537424850107
GO-32
1 25397U 98043D   10014.55342893 -.00000029  00000-0  52062-5 0   875
2 25397 098.3164 030.4442 0001476 032.6796 327.4464 14.23169549598193
NO-44
1 26931U 01043C   10014.63969060  .00000021  00000-0  40625-4 0  3611
2 26931 067.0518 239.5749 0006793 267.4052 092.6287 14.29578988432802
SO-50
1 27607U 02058C   10014.68935134  .00000115  00000-0  40046-4 0   785
2 27607 064.5587 102.7312 0042268 145.8026 214.5817 14.71490377379799
CO-55
1 27844U 03031E   10013.57654836  .00000022  00000-0  30371-4 0  7564
2 27844 098.7112 024.7586 0009157 257.8866 102.1292 14.20677674339131
CO-57
1 27848U 03031J   10014.71078223  .00000036  00000-0  37320-4 0  7077
2 27848 098.7180 024.9507 0008851 256.4498 103.5689 14.20474757339256
AO-51
1 28375U 04025K   10013.54749693  .00000006  00000-0  14529-4 0 05805
2 28375 098.0537 015.9147 0082990 206.4886 153.2051 14.40665278291246
CO-56
1 28941U 06005C   09297.68475575  .14491492  29743-5  25760-3 0  5565
2 28941 098.0955 138.9518 0011688 319.8691 040.7485 16.46998778207909
GENESAT1
1 29655U 06058C   10013.94410887  .00029612  00000-0  21804-3 0 09169
2 29655 040.0193 297.4037 0006828 282.6308 077.3816 15.72273575175572
CP3
1 31129U 07012N   10014.63677287  .00000115  00000-0  37210-4 0  4706
2 31129 097.9631 062.2667 0102245 350.7489 009.1818 14.52199852145577
CO-65
1 32785U 08021C   10014.72514359 -.00000175  00000-0 -15446-4 0  5780
2 32785 097.9183 081.6327 0016084 065.3129 294.9768 14.81566738 92764
KKS-1
1 33493U 09002B   10014.74271897  .00000315  00000-0  47874-4 0  1179
2 33493 098.0699 133.1084 0018888 278.3288 081.5796 14.80820214 52773
SOHLA-1
1 33496U 09002E   10013.79598385 -.00000081  00000-0 -54720-5 0 00013
2 33496 098.0478 124.9936 0006103 342.8498 017.2514 14.69462862052202
NOAA-10
1 16969U 86073A   10013.58971128  .00000013  00000-0  23151-4 0 09160
2 16969 098.6734 043.8853 0011813 306.0860 053.9219 14.27403850213524
NOAA-11
1 19531U 88089A   10013.79881303  .00000116  00000-0  82458-4 0 09298
2 19531 098.7763 105.4333 0010888 226.5592 133.4681 14.14912397099304
NOAA-12
1 21263U 91032A   10013.80506954  .00000017  00000-0  26065-4 0 04111
2 21263 098.7698 026.9514 0011509 254.8232 105.1670 14.25610661970404
MET-3/5
1 21655U 91056A   10013.65944564  .00000051  00000-0  10000-3 0 07121
2 21655 082.5551 057.8180 0014010 020.7474 339.4155 13.17020169885333
MET-2/21
1 22782U 93055A   10014.55274772  .00000028  00000-0  11885-4 0  6688
2 22782 082.5469 014.3280 0023769 111.8732 248.4973 13.83640278826831
OKEAN-4
1 23317U 94066A   10014.73257783  .00000280  00000-0  31522-4 0  1279
2 23317 082.5412 137.0826 0023070 031.4326 328.8255 14.82756654823710
NOAA-14
1 23455U 94089A   10013.78895122 -.00000049  00000-0 -24388-5 0 09058
2 23455 098.8917 095.5379 0008902 318.1154 041.9328 14.13776178775688
NOAA-15
1 25338U 98030A   10013.87104516 -.00000010  00000-0  14374-4 0 02334
2 25338 098.6048 003.6780 0010975 159.7058 200.4567 14.24801399606770
RESURS
1 25394U 98043A   10014.62947521 -.00000022  00000-0  82392-5 0  4066
2 25394 098.3176 040.9819 0001272 351.4716 008.6434 14.24192186598497
FENGYUN1
1 25730U 99025A   10014.83235348  .00000121  00000-0  95776-4 0  9480
2 25730 098.7742 343.8792 0024232 337.5069 022.5029 14.08167545550100
OKEAN-0
1 25860U 99039A   10014.82411276  .00000041  00000-0  13648-4 0  8875
2 25860 097.8127 352.9077 0000777 109.2806 250.8488 14.73607449564316
NOAA-16
1 26536U 00055A   10013.88144266  .00000082  00000-0  69784-4 0 07105
2 26536 099.1779 027.6610 0011096 053.0862 307.1306 14.12543012480048
NOAA-17
1 27453U 02032A   10013.85087099 -.00000075  00000-0 -14528-4 0 07131
2 27453 098.4567 070.3446 0011051 225.3831 134.6431 14.24121267392734
NOAA-18
1 28654U 05018A   10013.89337148  .00000337  00000-0  21097-3 0 01961
2 28654 098.9329 320.7444 0015008 127.0829 233.1716 14.11320152239674
NOAA-19
1 33591U 09005A   10013.84786335 -.00000048  00000-0 -25039-5 0 04043
2 33591 098.7722 319.3813 0014398 010.0180 350.1303 14.11015527048140
HUBBLE
1 20580U 90037B   10012.78322287  .00000366  00000-0  15235-4 0  5033
2 20580 028.4687 174.3033 0003229 348.3260 011.7260 15.00877270881376
ISS
1 25544U 98067A   10014.97474444  .00017682  00000-0  10803-3 0  3723
2 25544 051.6459 297.7480 0007371 183.7346 278.4013 15.77449251639333
CO-58
1 28895U 05043F   10013.21771845  .00000040  00000-0  17727-4 0 04878
2 28895 098.0366 262.6323 0018635 052.8542 307.4345 14.59833463224379
FALCON
1 30776U 07006E   10014.89052336  .00000482  00000-0  37728-4 0  7430
2 30776 035.4337 254.8178 0001826 307.1870 052.8680 15.03423303156979
MAST
1 31126U 07012K   10014.64649558  .00000154  00000-0  45464-4 0  7777
2 31126 097.9617 064.4310 0094518 344.0292 015.7955 14.53545991145753
CAPE1
1 31130U 07012P   10013.58408571  .00000169  00000-0  49791-4 0 07911
2 31130 097.9604 061.1441 0102753 354.1602 005.8393 14.52123930145223
COMPASS
1 32787U 08021E   10013.33112838  .00000129  00000-0  23131-4 0 05691
2 32787 097.9156 080.0838 0016835 069.9538 290.3509 14.81732392092566
AAUSAT2
1 32788U 08021F   10014.15889449  .00000672  00000-0  91573-4 0  5623
2 32788 097.9152 080.9969 0016534 067.4752 292.8204 14.81868143 92691
DO-64
1 32789U 08021G   10013.70539345  .00000554  00000-0  76508-4 0 05801
2 32789 097.9222 080.8676 0016524 069.7462 290.5491 14.81921136092624
CO-66
1 32791U 08021J   10013.19677092  .00000086  00000-0  17688-4 0 05599
2 32791 097.9169 079.9794 0017259 068.6286 291.6769 14.81542211092505
RS-30
1 32953U 08025A   10013.34809354  .00000010  00000-0  00000-0 0 05018
2 32953 082.5026 125.9645 0019826 081.6465 278.6860 12.43003123074507
TACSAT-3
1 35001U 09028A   10013.60719974  .00003875  00000-0  99761-4 0 02044
2 35001 040.4551 061.4365 0024206 289.2337 070.5859 15.39977695036782
PHARMSAT
1 35002U 09028B   10013.49193405  .00003347  00000-0  84858-4 0 01883
2 35002 040.4699 060.7896 0027208 292.7943 066.9996 15.40666374036775
HAWKSAT1
1 35003U 09028C   10013.49881445  .00006910  00000-0  16128-3 0 01997
2 35003 040.4615 058.8664 0026417 298.9849 060.8317 15.42073154036803
CP6
1 35004U 09028D   10013.48565814  .00007924  00000-0  18255-3 0 01850
2 35004 040.4610 058.7724 0025833 299.3964 060.4267 15.42337516036792
AEROCUB3
1 35005U 09028E   10013.51418725  .00013892  00000-0  31451-3 0  1891
2 35005 040.4746 059.2590 0024941 294.5198 065.3013 15.42460940 36796
DRAGNSAT
1 35690U 09038B   10014.17516524  .00087599  14166-4  24262-3 0  1878
2 35690 051.6370 288.5421 0003123 071.1819 288.9520 15.93838825 26603
POLLUX
1 35693U 09038E   10014.84482118  .00069906  13011-4  21693-3 0  1837
2 35693 051.6378 286.2968 0000668 073.9297 286.2000 15.91864510 26664
CASTOR
1 35694U 09038F   10014.15332188  .00025610  00000-0  10736-3 0  1585
2 35694 051.6407 293.0255 0001979 331.2402 028.8599 15.85401117 26517
METEOR-M
1 35865U 09049A   10013.66840166  .00000176  00000-0  10000-3 0  1014
2 35865 098.7822 068.4083 0003263 087.3159 272.8343 14.21828423 16765
RS-38
1 35869U 09049E   10014.71157963  .00000176  00000-0  10000-3 0  1033
2 35869 098.7808 069.4634 0005466 088.8099 271.3651 14.21975384 16914
/EX






More information about the Keps mailing list